Appleton, MN

6:29 AM CDT on March 30, 2017 (GMT -0500)
Appleton Municipal

Weather History for KAQP - March, 2013

Change the Weather History Date:

Sunday, March 31, 2013

  Actual Average Record
Temperature  
Mean Temperature 27 °F -  
Max Temperature 33 °F 43 °F 75 °F (2003)
Min Temperature 21 °F 25 °F 19 °F (2014)
Degree Days  
Heating Degree Days 38    
Moisture  
Dew Point 23 °F    
Average Humidity 79    
Maximum Humidity 100    
Minimum Humidity 64    
Precipitation  
Precipitation 0.00 in - - ()
Sea Level Pressure  
Sea Level Pressure 30.01 in    
Wind  
Wind Speed 15 mph (NW)    
Max Wind Speed 30 mph    
Max Gust Speed 36 mph    
Visibility 9 miles    
Events      
Averages and records for this station are not official NWS values.
T = Trace of Precipitation, MM = Missing Value Source: NWS Daily Summary

Daily Weather History Graph

Daily Weather History Graph

Search for Another Location

Airport or City:

Trip Planner

Search our weather history database for the weather conditions in past years. The results will help you decide how hot, cold, wet, or windy it might be!

Date:

Astronomy

Mar. 31, 2013 Rise Set
Actual Time 7:05 AM CDT 7:51 PM CDT
Civil Twilight 6:36 AM CDT 8:20 PM CDT
Nautical Twilight 6:00 AM CDT 8:56 PM CDT
Astronomical Twilight 5:23 AM CDT 9:33 PM CDT
Moon 12:09 AM CDT (3/31) 9:42 AM CDT (3/31)
Length of Visible Light 13h 44m
Length of Day
12h 45m
Waning Gibbous, 77% of the Moon is Illuminated
Mar 31
Waning Gibbous
Apr 2
Last Quarter
Apr 10
New
Apr 18
First Quarter
Apr 25
Full

Hourly Weather History & Observations

Time (CDT) Temp. Windchill Dew Point Humidity Pressure Visibility Wind Dir Wind Speed Gust Speed Precip Events Conditions
12:13 AM 33.8 °F 28.6 °F 32.0 °F 93% 29.93 in 2.5 mi West 5.8 mph - N/A   Mostly Cloudy
12:33 AM 33.8 °F 29.6 °F 32.0 °F 93% 29.92 in 2.5 mi WSW 4.6 mph - N/A   Mostly Cloudy
12:53 AM 33.8 °F 27.7 °F 30.2 °F 87% 29.92 in 2.5 mi WSW 6.9 mph - N/A   Overcast
1:13 AM 33.8 °F 26.4 °F 32.0 °F 93% 29.92 in 3.0 mi West 9.2 mph - N/A   Mostly Cloudy
1:33 AM 33.8 °F 26.4 °F 32.0 °F 93% 29.92 in 4.0 mi West 9.2 mph - N/A   Mostly Cloudy
1:53 AM 32.0 °F 24.2 °F 30.2 °F 93% 29.91 in 4.0 mi West 9.2 mph - N/A   Scattered Clouds
2:13 AM 30.2 °F 23.4 °F 30.2 °F 100% 29.91 in 4.0 mi West 6.9 mph - N/A   Clear
2:33 AM 30.2 °F 22.6 °F 30.2 °F 100% 29.90 in 4.0 mi West 8.1 mph - N/A   Clear
2:53 AM 32.0 °F 24.8 °F 30.2 °F 93% 29.90 in 5.0 mi West 8.1 mph - N/A   Scattered Clouds
3:13 AM 30.2 °F 23.4 °F 30.2 °F 100% 29.89 in 4.0 mi West 6.9 mph - N/A   Scattered Clouds
3:33 AM 32.0 °F 24.2 °F 30.2 °F 93% 29.89 in 7.0 mi West 9.2 mph - N/A   Scattered Clouds
3:53 AM 33.8 °F 25.8 °F 30.2 °F 87% 29.88 in 10.0 mi WNW 10.4 mph - N/A   Clear
4:13 AM 33.8 °F 25.8 °F 30.2 °F 87% 29.88 in 10.0 mi West 10.4 mph - N/A   Clear
4:33 AM 33.8 °F 24.8 °F 30.2 °F 87% 29.87 in 10.0 mi WNW 12.7 mph - N/A   Clear
4:53 AM 33.8 °F 24.8 °F 30.2 °F 87% 29.87 in 10.0 mi WNW 12.7 mph 19.6 mph N/A   Clear
5:13 AM 33.8 °F 24.3 °F 28.4 °F 81% 29.87 in 10.0 mi WNW 13.8 mph - N/A   Clear
5:33 AM 33.8 °F 22.5 °F 28.4 °F 81% 29.88 in 10.0 mi NW 19.6 mph - N/A   Scattered Clouds
5:53 AM 33.8 °F 22.8 °F 28.4 °F 81% 29.88 in 10.0 mi NW 18.4 mph 27.6 mph N/A   Mostly Cloudy
6:14 AM 33.8 °F 22.8 °F 28.4 °F 81% 29.88 in 10.0 mi NW 18.4 mph 24.2 mph N/A   Overcast
6:33 AM 33.8 °F 22.2 °F 28.4 °F 81% 29.88 in 10.0 mi NW 20.7 mph 25.3 mph N/A   Overcast
6:53 AM 33.8 °F 22.2 °F 28.4 °F 81% 29.89 in 10.0 mi NW 20.7 mph 27.6 mph N/A   Overcast
7:13 AM 33.8 °F 22.8 °F 28.4 °F 81% 29.90 in 10.0 mi NW 18.4 mph - N/A   Overcast
7:33 AM 33.8 °F 23.2 °F 28.4 °F 81% 29.90 in 7.0 mi NW 17.3 mph 21.9 mph N/A   Overcast
7:53 AM 33.8 °F 22.8 °F 28.4 °F 81% 29.91 in 7.0 mi NNW 18.4 mph 24.2 mph N/A   Overcast
8:14 AM 32.0 °F 18.9 °F 26.6 °F 80% 29.93 in 10.0 mi NNW 24.2 mph 29.9 mph N/A   Mostly Cloudy
8:33 AM 30.2 °F 17.1 °F 26.6 °F 86% 29.94 in 10.0 mi NNW 21.9 mph 33.4 mph N/A   Mostly Cloudy
8:54 AM 30.2 °F 15.9 °F 26.6 °F 86% 29.95 in 10.0 mi NNW 26.5 mph 33.4 mph N/A   Mostly Cloudy
9:13 AM 30.2 °F 15.2 °F 24.8 °F 80% 29.95 in 10.0 mi NNW 29.9 mph 33.4 mph N/A   Mostly Cloudy
9:54 AM 30.2 °F 15.9 °F 24.8 °F 80% 29.98 in 10.0 mi NNW 26.5 mph 35.7 mph N/A   Scattered Clouds
10:13 AM 30.2 °F 16.8 °F 24.8 °F 80% 29.99 in 10.0 mi NNW 23.0 mph - N/A   Overcast
10:33 AM 30.2 °F 16.2 °F 24.8 °F 80% 29.99 in 10.0 mi NNW 25.3 mph 31.1 mph N/A   Overcast
10:53 AM 32.0 °F 18.9 °F 24.8 °F 75% 30.00 in 10.0 mi NNW 24.2 mph 28.8 mph N/A   Mostly Cloudy
11:13 AM 30.2 °F 15.7 °F 23.0 °F 75% 30.01 in 10.0 mi NNW 27.6 mph - N/A   Scattered Clouds
11:34 AM 30.2 °F 17.4 °F 21.2 °F 69% 30.01 in 10.0 mi NNW 20.7 mph 29.9 mph N/A   Scattered Clouds
11:53 AM 30.2 °F 15.9 °F 21.2 °F 69% 30.02 in 10.0 mi NNW 26.5 mph 32.2 mph N/A   Mostly Cloudy
12:14 PM 30.2 °F 17.1 °F 21.2 °F 69% 30.02 in 10.0 mi NNW 21.9 mph 31.1 mph N/A   Scattered Clouds
12:34 PM 30.2 °F 15.7 °F 19.4 °F 64% 30.02 in 10.0 mi NNW 27.6 mph - N/A   Clear
12:53 PM 30.2 °F 16.2 °F 19.4 °F 64% 30.03 in 10.0 mi NNW 25.3 mph 33.4 mph N/A   Clear
1:13 PM 30.2 °F 15.9 °F 19.4 °F 64% 30.03 in 10.0 mi NNW 26.5 mph 32.2 mph N/A   Clear
1:34 PM 30.2 °F 16.5 °F 19.4 °F 64% 30.04 in 10.0 mi NNW 24.2 mph 32.2 mph N/A   Clear
1:53 PM 30.2 °F 16.5 °F 19.4 °F 64% 30.04 in 10.0 mi NNW 24.2 mph - N/A   Scattered Clouds
2:13 PM 30.2 °F 16.5 °F 19.4 °F 64% 30.04 in 10.0 mi NNW 24.2 mph 32.2 mph N/A   Scattered Clouds
2:33 PM 30.2 °F 16.2 °F 19.4 °F 64% 30.05 in 10.0 mi NNW 25.3 mph 33.4 mph N/A   Scattered Clouds
2:53 PM 28.4 °F 13.0 °F 17.6 °F 64% 30.05 in 10.0 mi NNW 28.8 mph - N/A   Clear
3:13 PM 28.4 °F 14.1 °F 19.4 °F 69% 30.05 in 10.0 mi NNW 24.2 mph 29.9 mph N/A   Clear
3:33 PM 28.4 °F 14.7 °F 19.4 °F 69% 30.06 in 10.0 mi NNW 21.9 mph 27.6 mph N/A   Mostly Cloudy
3:53 PM 28.4 °F 14.4 °F 19.4 °F 69% 30.06 in 10.0 mi NNW 23.0 mph - N/A   Mostly Cloudy
4:13 PM 28.4 °F 14.4 °F 19.4 °F 69% 30.07 in 10.0 mi NNW 23.0 mph 26.5 mph N/A   Mostly Cloudy
4:33 PM 28.4 °F 14.7 °F 19.4 °F 69% 30.07 in 10.0 mi NNW 21.9 mph 25.3 mph N/A   Mostly Cloudy
4:53 PM 28.4 °F 14.7 °F 19.4 °F 69% 30.08 in 10.0 mi NNW 21.9 mph 28.8 mph N/A   Scattered Clouds
5:14 PM 28.4 °F 15.1 °F 21.2 °F 74% 30.08 in 10.0 mi NNW 20.7 mph 26.5 mph N/A   Mostly Cloudy
5:33 PM 28.4 °F 14.7 °F 17.6 °F 64% 30.09 in 10.0 mi NNW 21.9 mph 31.1 mph N/A   Mostly Cloudy
5:53 PM 26.6 °F 11.7 °F 19.4 °F 74% 30.09 in 10.0 mi NNW 24.2 mph 27.6 mph N/A   Scattered Clouds
6:13 PM 26.6 °F 12.4 °F 19.4 °F 74% 30.10 in 10.0 mi North 21.9 mph - N/A   Scattered Clouds
6:33 PM 26.6 °F 12.4 °F 19.4 °F 74% 30.11 in 10.0 mi NNW 21.9 mph 28.8 mph N/A   Mostly Cloudy
7:13 PM 26.6 °F 12.4 °F 17.6 °F 69% 30.12 in 10.0 mi NNW 21.9 mph 27.6 mph N/A   Mostly Cloudy
7:33 PM 26.6 °F 12.0 °F 17.6 °F 69% 30.12 in 10.0 mi NNW 23.0 mph 27.6 mph N/A   Mostly Cloudy
7:53 PM 24.8 °F 10.7 °F 17.6 °F 74% 30.13 in 10.0 mi NNW 19.6 mph 28.8 mph N/A   Scattered Clouds
8:14 PM 24.8 °F 10.3 °F 17.6 °F 74% 30.14 in 10.0 mi North 20.7 mph 25.3 mph N/A   Clear
8:34 PM 24.8 °F 11.9 °F 17.6 °F 74% 30.15 in 10.0 mi NNW 16.1 mph - N/A   Clear
8:53 PM 23.0 °F 11.1 °F 17.6 °F 80% 30.16 in 10.0 mi NNW 12.7 mph 19.6 mph N/A   Clear
9:14 PM 23.0 °F 11.1 °F 15.8 °F 74% 30.16 in 10.0 mi NNW 12.7 mph - N/A   Clear
9:33 PM 23.0 °F 11.7 °F 17.6 °F 80% 30.17 in 10.0 mi NNW 11.5 mph - N/A   Clear
9:53 PM 21.2 °F 10.1 °F 17.6 °F 86% 30.18 in 10.0 mi NNW 10.4 mph - N/A   Clear
10:13 PM 21.2 °F 10.1 °F 17.6 °F 86% 30.19 in 10.0 mi NNW 10.4 mph - N/A   Clear
10:33 PM 21.2 °F 10.1 °F 17.6 °F 86% 30.19 in 10.0 mi NNW 10.4 mph - N/A   Clear
10:53 PM 21.2 °F 8.9 °F 17.6 °F 86% 30.20 in 10.0 mi NNW 12.7 mph - N/A   Clear
11:13 PM 21.2 °F 10.1 °F 17.6 °F 86% 30.20 in 10.0 mi NNW 10.4 mph - N/A   Clear
11:33 PM 21.2 °F 10.1 °F 15.8 °F 80% 30.20 in 10.0 mi NNW 10.4 mph - N/A   Clear
11:53 PM 21.2 °F 10.1 °F 15.8 °F 80% 30.20 in 10.0 mi NNW 10.4 mph - N/A   Clear